Regional Weather Roundup
Issued by NWS

Home | Current Version | Previous Version | Text Only | Print | Product List | Glossary On
Versions: 1 2 3 4 5 6 7 8 9 10 11 12 13 14 15 16 17 18 19 20 21 22 23 24 25 26 27 28 29 30 31 32 33 34 35 36 37 38 39 40 41 42 43 44 45 46 47 48 49 50
454
ASUS44 KLUB 291301
RWRTX
WEST TEXAS WEATHER ROUNDUP
NATIONAL WEATHER SERVICE LUBBOCK TX
800 AM CDT FRI APR 29 2016

NOTE: "FAIR" INDICATES FEW OR NO CLOUDS BELOW 12,000 FEET WITH NO
SIGNIFICANT WEATHER AND/OR OBSTRUCTIONS TO VISIBILITY.

TXZ004-006>008-010-012-014-016-OKZ002-291400-
TEXAS PANHANDLE/OKLAHOMA PANHANDLE

CITY           SKY/WX    TMP DP  RH WIND       PRES   REMARKS
AMARILLO       TSTM      49  47  93 NE22G30   29.75R FOG
BORGER         LGT RAIN  48  47  96 NE18G30   29.75F FOG
CANADIAN       TSTM      50  49  95 NE22G32   29.76F
DALHART        LGT RAIN  46  44  93 NE21G32   29.81R
DUMAS          LGT RAIN  45  45  99 E26G41    29.74F
GUYMON         RAIN      47  45  93 E22G28    29.83F
HEREFORD       TSTM      51  50  98 NE24      29.69F
$$

TXZ026-029-035-045-048-291400-
SOUTHERN PANHANDLE/SOUTH PLAINS/ROLLING PLAINS

CITY           SKY/WX    TMP DP  RH WIND       PRES   REMARKS
CHILDRESS      CLOUDY    60  57  89 E9        29.66F
SEMINOLE       SUNNY     62  48  60 W13G18    29.73R
LUBBOCK        MOSUNNY   67  64  90 S16       29.65S FOG
SNYDER           N/A     69  67  93 S14G21    29.68R FOG
$$

TXZ052-054-060>062-072-078-127-140-154-169-291400-
PERMIAN BASIN/CONCHO VALLEY/BIG COUNTRY/EDWARDS PLATEAU

CITY           SKY/WX    TMP DP  RH WIND       PRES   REMARKS
ABILENE        MOSUNNY   72  67  84 S20G28    29.67R HAZE
BIG SPRING     MOSUNNY   67  62  82 S16       29.72R
BROWNWOOD      CLOUDY    73  68  83 S9        29.72R HAZE
JUNCTION       CLOUDY    72  66  81 W3        29.73R HAZE
MIDLAND        SUNNY     68  54  60 SW13      29.73R
ODESSA         SUNNY     65  40  39 SW8       29.74R
SAN ANGELO     SUNNY     73  67  81 S9        29.68R HAZE
WINK           CLEAR     61  46  57 W9        29.73R
$$

TXZ055-058-074-075-080-082-291400-
FAR WEST/SOUTHWEST MOUNTAINS/TRANS PECOS

CITY           SKY/WX    TMP DP  RH WIND       PRES   REMARKS
ALPINE         CLEAR     56  30  36 S5        29.89R
DRYDEN           N/A     72  69  90 SE5       29.69R
EL PASO        CLEAR     58  21  24 NW20G28   29.86R
FORT STOCKTON  CLEAR     65  35  33 NW6       29.78R
MARFA          CLEAR     55  29  36 W9        29.88R
PRESIDIO       FAIR      69  28  21 NW13      29.77R
$$

TXZ014-016-019-021>030-083-291400
TEXAS TECH WEST TEXAS MESONET/TEXAS PANHANDLE/NORTHERN SOUTH PLAINS

CITY           SKY/WX    TMP DP  RH WIND       PRES   REMARKS
ABERNATHY 5ENE   N/A     64  62  91 SE14      29.68F
AMARILLO 9NNE    N/A     49  48  98 NW20G25   29.80R
AMARILLO 7SSE  RAIN      49  48  97 NE18      29.76R
AMHERST 1NE      N/A     60  59  96 SW7       29.69R
BOOTLEG 11WNW    N/A     45  44  97 NW22      29.81R
CANADIAN 6E      N/A     48  47  95 NE33G44   29.76S
CAPROCK CYN SP   N/A     56  56  97 N6        29.70F
CHILDRESS 2NNE   N/A     59  56  88 E8        29.68F
CLARENDON 2WSW   N/A     53  50  89 E12       29.72F
CLAUDE 12SW      N/A     52  51  99 NE14      29.70F
DIMMITT 2NE      N/A     60  58  96 SE9       29.68F
FLOYDADA 2NNE    N/A     64  63  97 SE12      29.67F
FRIONA 2NE       N/A     49  47  94 NW17      29.77R
GOODLETT 3W      N/A     64  57  79 E13       29.66F
HART 3N          N/A     59  58  97 E12       29.68F
HEREFORD 2NW   HVY RAIN  49  47  93 N17G23    29.75R
MCLEAN 1E      LGT RAIN  51  50  94 NE18G28   29.72F
MEMPHIS 1NE      N/A     57  54  87 NE8       29.71S
MULESHOE 2SSW    N/A     52  48  89 NW20G29   29.73R
OLTON 6S       LGT RAIN  58  54  88 S17G29    29.67S
PALO DURO SP     N/A     51  49  94 N15G23    29.74R
PAMPA 2E         N/A     48  48  98 NE22G29   29.77S
PLAINVIEW 1S     N/A     62  62  97 SE12      29.66F
SILVERTON 7ESE   N/A     56  55  97 E13       29.68F
TULIA 2ENE     LGT RAIN  57  56  98 E14       29.68F
TURKEY 2WSW      N/A     58  57  94 NE8       29.69F
UMBARGER 3NNE    N/A     49  47  95 NE22G28   29.73R
$$

TXZ033>036-039>041-045>048-291400
TEXAS TECH WEST TEXAS MESONET/SOUTH PLAINS

CITY           SKY/WX    TMP DP  RH WIND       PRES   REMARKS
AIKEN 3WSW       N/A     62  62  99 SE16      29.67F
ANDREWS 2NE      N/A     64  52  64 W9        29.75R
ANTON 6SSW       N/A     67  62  85 S14       29.68R
BROWNFIELD 2S    N/A     64  60  88 SW10      29.69S
DENVR CTY 7WNW   N/A     57  46  68 W15       29.74R
GAIL 2ESE        N/A     70  66  85 S14       29.67R
LAMESA 2SE       N/A     66  62  88 S12       29.70R
LEVELLAND 4S     N/A     65  60  84 S13       29.69R
LUBBOCK 3WNW     N/A     68  62  82 S12G20    29.68R
MORTON 1ENE      N/A     61  57  86 W18G26    29.71R
ODONNELL 1N      N/A     67  63  87 S12       29.69R
PLAINS 3N        N/A     58  54  84 W15       29.73R
RALLS 1SE        N/A     65  63  94 SE13      29.68S
REESE CENTER     N/A     66  62  87 S15       29.68R
SEAGRAVES 1SW    N/A     62  58  87 SW10      29.72R
SEMINOLE 2NNE    N/A     62  51  66 SW10      29.72R
SLATON 2NE       N/A     67  64  90 S14       29.67R
SNYDER 3E        N/A     69  66  91 S17       29.67F
SUNDOWN 8SW      N/A     61  59  91 SW10      29.70R
TAHOKA 3NNE      N/A     67  64  89 S15       29.68R
WOLFFORTH 6SSW   N/A     67  63  85 S14       29.68R
$$

TXZ031-032-036>038-042>044-291400-
TEXAS TECH WEST TEXAS MESONET/ROLLING PLAINS

CITY           SKY/WX    TMP DP  RH WIND       PRES   REMARKS
ASPERMONT 3NE    N/A     69  66  89 SE8G15    29.67F
FLUVANNA 3WNW    N/A     68  64  87 S18       29.67R
GRAHAM 5SSW      N/A     68  64  86 S18       29.67R
GUTHRIE 10WSW    N/A     68  63  85 SE9       29.65F
HASKELL 1NW      N/A     69  65  89 SE6       29.69R
JAYTON 1SSE      N/A     68  65  89 SE10      29.65S
KNOX CITY 3NW    N/A     68  63  82 SE12      29.67S
LK A HENRY 1NW   N/A     70  65  85 S10       29.66R
NORTHFIELD 1S    N/A     61  59  95 NE3       29.69R
ODELL 4ENE       N/A     63  59  86 E15       29.71F
PADUCAH 10SW     N/A     64  60  87 NE5       29.67S
POST 1NE         N/A     70  64  80 S15G22    29.65S
RRING SPRGS 3N   N/A     61  60  97 NE5       29.68F
SEYMOUR 3NW      N/A     69  65  86 SE5       29.69R
SPUR 1W          N/A     66  63  90 SE7       29.65F
$$

TXZ052-054-060>062-072-078-127-140-154-169-291400-
TEXAS TECH WEST TEXAS MESONET/PERMIAN BASIN/
CONCHO VALLEY/BIG COUNTRY/EDWARDS PLATEAU

CITY           SKY/WX    TMP DP  RH WIND       PRES   REMARKS
COYANOSA 2N      N/A     66  31  26 W10       29.77R
JUNCTION 1SSW    N/A     71  68  88 W2        29.75R
MERTZON 3NNE     N/A     72  67  86 S10       29.72R
SAN ANGELO 7NW   N/A     71  66  82 SE7       29.71R
STRLNG CT 4WSW   N/A     72  67  84 S13       29.72S
ST LAWRNCE 5SW   N/A     69  65  86 S9        29.74R
SWEETWATR 11SW   N/A     70  67  89 S18       29.72R
WALL 1E          N/A     72  65  80 SE8       29.71R
$$

TXZ055-058-074-075-080-082-291400-
TEXAS TECH WEST TEXAS MESONET/FAR WEST/SOUTHWEST MOUNTAINS/TRANS PECOS

CITY           SKY/WX    TMP DP  RH WIND       PRES   REMARKS
PRSMN GAP BBNP   N/A     65  39  38 E1        29.76R
GUADLPE MTN NP   N/A     54  24  31 W25G33    29.84R
$$




USA.gov is the U.S. government's official web portal to all federal, state and local government web resources and services.